FW5796 Weather Reports


Display with metric or nautical units.
time (UTC)temp
F
wind
direction
speed
MPH
gust
MPH
rain 1hr
in
rain 24hr
in
rain mn
in
humidity
%
barometer
mb
20260507025429 79 39 4.0 8.0 0.00 0.00 0.00 11 1016.6
20260507024927 80 39 3.0 8.0 0.00 0.00 0.00 11 1016.6
20260507024426 80 39 4.0 9.0 0.00 0.00 0.00 11 1016.5
20260507023921 80 39 4.0 9.0 0.00 0.00 0.00 11 1016.5
20260507023654 80 39 4.0 8.0 0.00 0.00 0.00 11 1016.4
20260507023419 80 39 5.0 8.0 0.00 0.00 0.00 11 1016.4
20260507022416 81 39 4.0 8.0 0.00 0.00 0.00 10 1016.3
20260507021915 81 39 4.0 8.0 0.00 0.00 0.00 10 1016.4
20260507021413 81 39 5.0 9.0 0.00 0.00 0.00 10 1016.4
20260507020911 82 39 6.0 9.0 0.00 0.00 0.00 10 1016.4
20260507020409 82 39 7.0 11.0 0.00 0.00 0.00 10 1016.2
20260507015906 83 39 8.0 14.0 0.00 0.00 0.00 9 1016.3
20260507015404 83 39 8.0 14.0 0.00 0.00 0.00 8 1016.3
20260507015134 83 39 6.0 12.0 0.00 0.00 0.00 9 1016.3
20260507014404 83 39 5.0 11.0 0.00 0.00 0.00 9 1016.3
20260507013904 83 39 6.0 11.0 0.00 0.00 0.00 9 1016.3
20260507013634 83 39 5.0 10.0 0.00 0.00 0.00 9 1016.4
20260507012904 83 39 6.0 13.0 0.00 0.00 0.00 9 1016.3
20260507012404 83 39 6.0 13.0 0.00 0.00 0.00 9 1016.4
20260507011900 83 39 5.0 12.0 0.00 0.00 0.00 10 1016.3
20260507011359 83 39 7.0 15.0 0.00 0.00 0.00 10 1016.3
20260507010859 83 39 10.0 18.0 0.00 0.00 0.00 10 1016.3
20260507010631 83 39 9.0 18.0 0.00 0.00 0.00 10 1016.4
20260507005859 83 39 8.0 14.0 0.00 0.00 0.00 10 1016.3
20260507005624 83 39 7.0 14.0 0.00 0.00 0.00 10 1016.4
20260507004850 83 39 5.0 12.0 0.00 0.00 0.00 10 1016.4
20260507004621 83 39 5.0 11.0 0.00 0.00 0.00 10 1016.4
20260507003850 83 39 7.0 13.0 0.00 0.00 0.00 10 1016.4
20260507003348 83 39 5.0 13.0 0.00 0.00 0.00 9 1016.4
20260507002846 83 39 3.0 11.0 0.00 0.00 0.00 10 1016.4
20260507002344 83 39 4.0 11.0 0.00 0.00 0.00 10 1016.4
20260507001841 83 39 5.0 10.0 0.00 0.00 0.00 10 1016.4
20260507001340 83 39 6.0 16.0 0.00 0.00 0.00 10 1016.5
20260507000839 83 39 5.0 16.0 0.00 0.00 0.00 10 1016.5
20260507000340 83 39 5.0 12.0 0.00 0.00 0.00 10 1016.5
20260507000109 83 39 8.0 13.0 0.00 0.00 0.00 10 1016.6
20260506235338 83 39 10.0 23.0 0.00 0.00 0.00 10 1016.5
20260506235112 83 39 3.0 12.0 0.00 0.00 0.00 10 1016.5
20260506234837 83 39 7.0 23.0 0.00 0.00 0.00 10 1016.4
20260506233831 83 39 4.0 11.0 0.00 0.00 0.00 10 1016.5
20260506233332 83 39 5.0 11.0 0.00 0.00 0.00 10 1016.6
20260506233103 82 39 6.0 13.0 0.00 0.00 0.00 10 1016.6
20260506232330 82 39 6.0 15.0 0.00 0.00 0.00 10 1016.7
20260506231828 82 39 5.0 15.0 0.00 0.00 0.00 10 1016.8
20260506231328 82 39 6.0 11.0 0.00 0.00 0.00 11 1016.8
20260506231057 83 39 5.0 12.0 0.00 0.00 0.00 10 1016.9
20260506230325 82 39 5.0 13.0 0.00 0.00 0.00 10 1016.9
20260506230056 82 39 7.0 17.0 0.00 0.00 0.00 10 1016.9
20260506225324 82 39 7.0 17.0 0.00 0.00 0.00 10 1017.1
20260506224819 82 39 5.0 15.0 0.00 0.00 0.00 10 1017.0
20260506224547 82 39 5.0 13.0 0.00 0.00 0.00 10 1017.1
20260506223815 82 39 5.0 12.0 0.00 0.00 0.00 10 1017.3
20260506223313 81 39 6.0 13.0 0.00 0.00 0.00 11 1017.3
20260506222813 81 39 7.0 13.0 0.00 0.00 0.00 10 1017.3
20260506222310 82 39 6.0 13.0 0.00 0.00 0.00 11 1017.4
20260506221809 81 39 6.0 12.0 0.00 0.00 0.00 11 1017.4
20260506221539 81 39 7.0 12.0 0.00 0.00 0.00 11 1017.6
20260506221412 81 39 5.0 12.0 0.00 0.00 0.00 11 1017.8
20260506220538 81 39 4.0 11.0 0.00 0.00 0.00 11 1017.8
20260506215809 80 39 4.0 15.0 0.00 0.00 0.00 12 1017.9
20260506215301 80 39 5.0 15.0 0.00 0.00 0.00 12 1018.0
20260506214801 80 39 4.0 11.0 0.00 0.00 0.00 11 1018.2
20260506214301 80 39 3.0 11.0 0.00 0.00 0.00 12 1018.1
20260506213801 80 39 4.0 11.0 0.00 0.00 0.00 12 1018.3
20260506213533 79 39 4.0 14.0 0.00 0.00 0.00 12 1018.4
20260506212801 79 39 4.0 14.0 0.00 0.00 0.00 12 1018.3
20260506212257 79 39 5.0 11.0 0.00 0.00 0.00 12 1018.5
20260506211757 78 39 6.0 11.0 0.00 0.00 0.00 12 1018.5
20260506211257 79 39 5.0 11.0 0.00 0.00 0.00 12 1018.6
20260506210757 79 39 6.0 12.0 0.00 0.00 0.00 12 1018.6
20260506210255 78 39 7.0 12.0 0.00 0.00 0.00 13 1018.6
20260506205754 78 39 6.0 15.0 0.00 0.00 0.00 12 1018.7
20260506205250 78 39 5.0 15.0 0.00 0.00 0.00 12 1018.7
20260506204751 78 39 5.0 13.0 0.00 0.00 0.00 13 1018.8
20260506204250 78 39 7.0 13.0 0.00 0.00 0.00 13 1018.9
20260506203751 78 39 8.0 13.0 0.00 0.00 0.00 13 1018.9
20260506203249 78 39 7.0 13.0 0.00 0.00 0.00 13 1019.0
20260506203019 77 39 7.0 16.0 0.00 0.00 0.00 14 1018.9
20260506202518 77 39 8.0 16.0 0.00 0.00 0.00 14 1019.1
20260506201747 77 39 8.0 16.0 0.00 0.00 0.00 14 1019.1
20260506201247 77 39 6.0 16.0 0.00 0.00 0.00 14 1019.1
20260506200747 77 39 5.0 14.0 0.00 0.00 0.00 14 1019.2
20260506200517 76 39 7.0 14.0 0.00 0.00 0.00 14 1019.4
20260506195747 77 39 4.0 14.0 0.00 0.00 0.00 14 1019.4
20260506195248 77 39 4.0 9.0 0.00 0.00 0.00 15 1019.6
20260506194745 76 39 6.0 14.0 0.00 0.00 0.00 14 1019.8
20260506194243 76 39 7.0 14.0 0.00 0.00 0.00 14 1019.7
20260506193743 76 39 5.0 13.0 0.00 0.00 0.00 15 1019.7
20260506193243 76 39 4.0 13.0 0.00 0.00 0.00 15 1019.8
20260506192742 76 39 6.0 14.0 0.00 0.00 0.00 15 1019.8
20260506192242 76 39 8.0 14.0 0.00 0.00 0.00 15 1019.9
20260506191743 76 39 7.0 13.0 0.00 0.00 0.00 15 1019.8
20260506191239 75 39 8.0 14.0 0.00 0.00 0.00 15 1019.9
20260506190738 75 39 7.0 14.0 0.00 0.00 0.00 16 1020.0
20260506190239 75 39 4.0 13.0 0.00 0.00 0.00 15 1020.0
20260506185738 74 39 4.0 10.0 0.00 0.00 0.00 16 1020.1
20260506185239 74 39 4.0 12.0 0.00 0.00 0.00 16 1020.1
20260506184739 74 39 4.0 12.0 0.00 0.00 0.00 16 1020.2
20260506184509 74 39 5.0 14.0 0.00 0.00 0.00 17 1020.3
20260506183734 74 39 6.0 14.0 0.00 0.00 0.00 16 1020.5
20260506183235 74 39 7.0 15.0 0.00 0.00 0.00 16 1020.4
20260506183006 74 39 7.0 15.0 0.00 0.00 0.00 16 1020.5
20260506182234 74 39 5.0 12.0 0.00 0.00 0.00 17 1020.4
20260506181739 73 39 6.0 14.0 0.00 0.00 0.00 17 1020.4
20260506181734 73 39 7.0 14.0 0.00 0.00 0.00 17 1020.4
20260506181016 73 39 8.0 14.0 0.00 0.00 0.00 17 1020.5
20260506180740 73 39 6.0 13.0 0.00 0.00 0.00 17 1020.4
20260506180003 73 39 8.0 14.0 0.00 0.00 0.00 17 1020.5
20260506175231 73 39 7.0 14.0 0.00 0.00 0.00 17 1020.6
20260506174730 72 39 6.0 13.0 0.00 0.00 0.00 18 1020.5
20260506174509 72 39 7.0 13.0 0.00 0.00 0.00 18 1020.6
20260506173726 71 39 8.0 12.0 0.00 0.00 0.00 18 1020.6
20260506173226 71 39 7.0 11.0 0.00 0.00 0.00 18 1020.5
20260506172726 71 39 7.0 12.0 0.00 0.00 0.00 19 1020.5
20260506172226 71 39 5.0 12.0 0.00 0.00 0.00 19 1020.5
20260506171727 71 39 5.0 11.0 0.00 0.00 0.00 19 1020.5
20260506171226 71 39 6.0 12.0 0.00 0.00 0.00 19 1020.5
20260506170722 71 39 6.0 12.0 0.00 0.00 0.00 19 1020.5
20260506170221 71 39 5.0 12.0 0.00 0.00 0.00 20 1020.4
20260506165950 71 39 4.0 12.0 0.00 0.00 0.00 20 1020.4
20260506165219 71 39 4.0 11.0 0.00 0.00 0.00 20 1020.4
20260506164948 71 39 3.0 11.0 0.00 0.00 0.00 20 1020.5
20260506164216 70 39 2.0 8.0 0.00 0.00 0.00 20 1020.5
20260506163714 70 39 3.0 8.0 0.00 0.00 0.00 20 1020.5
20260506163212 69 39 2.0 6.0 0.00 0.00 0.00 21 1020.5
20260506162712 69 39 3.0 6.0 0.00 0.00 0.00 22 1020.5
20260506162207 69 39 3.0 6.0 0.00 0.00 0.00 22 1020.4
20260506161706 68 39 3.0 6.0 0.00 0.00 0.00 23 1020.4
20260506161207 68 39 2.0 5.0 0.00 0.00 0.00 23 1020.5
20260506160706 68 39 1.0 4.0 0.00 0.00 0.00 22 1020.5
20260506160204 67 39 1.0 3.0 0.00 0.00 0.00 23 1020.5
20260506155706 67 39 2.0 5.0 0.00 0.00 0.00 24 1020.5
20260506155203 67 39 2.0 5.0 0.00 0.00 0.00 24 1020.4
20260506154702 67 39 0.0 3.0 0.00 0.00 0.00 24 1020.4
20260506154202 66 39 1.0 3.0 0.00 0.00 0.00 25 1020.4
20260506153701 65 39 2.0 5.0 0.00 0.00 0.00 25 1020.4
20260506153159 65 39 2.0 5.0 0.00 0.00 0.00 26 1020.3
20260506152658 64 39 3.0 4.0 0.00 0.00 0.00 26 1020.3
20260506152152 64 39 3.0 5.0 0.00 0.00 0.00 26 1020.3
20260506151652 64 39 2.0 5.0 0.00 0.00 0.00 26 1020.2
20260506151153 63 39 3.0 5.0 0.00 0.00 0.00 26 1020.2
20260506150652 63 39 3.0 4.0 0.00 0.00 0.00 27 1020.2
20260506150152 62 39 3.0 4.0 0.00 0.00 0.00 27 1020.3
20260506145652 62 39 3.0 4.0 0.00 0.00 0.00 27 1020.3
20260506145150 61 39 3.0 5.0 0.00 0.00 0.00 28 1020.2
20260506144648 61 39 4.0 5.0 0.00 0.00 0.00 28 1020.2
20260506144146 60 39 3.0 5.0 0.00 0.00 0.00 28 1020.2
20260506143646 59 39 3.0 5.0 0.00 0.00 0.00 29 1020.1
20260506143151 59 39 3.0 4.0 0.00 0.00 0.00 29 1020.0
20260506142918 58 39 3.0 8.0 0.00 0.00 0.00 30 1020.0
20260506142140 57 39 4.0 8.0 0.00 0.00 0.00 31 1020.0
20260506141640 56 39 5.0 9.0 0.00 0.00 0.00 31 1020.0
20260506141145 56 39 6.0 10.0 0.00 0.00 0.00 31 1020.0
20260506140640 56 39 6.0 10.0 0.00 0.00 0.00 31 1020.1
20260506140140 56 39 6.0 9.0 0.00 0.00 0.00 31 1020.0
20260506135640 56 39 4.0 8.0 0.00 0.00 0.00 33 1019.9
20260506135136 56 39 4.0 8.0 0.00 0.00 0.00 33 1019.7
20260506134636 56 39 4.0 8.0 0.00 0.00 0.00 35 1019.6
20260506134137 55 39 3.0 4.0 0.00 0.00 0.00 36 1019.4
20260506133636 53 39 3.0 4.0 0.00 0.00 0.00 36 1019.4
20260506133134 53 39 3.0 5.0 0.00 0.00 0.00 37 1019.4
20260506132904 53 39 3.0 5.0 0.00 0.00 0.00 36 1019.3
20260506132132 54 39 2.0 5.0 0.00 0.00 0.00 35 1019.2
20260506131630 54 39 2.0 4.0 0.00 0.00 0.00 36 1019.1
20260506131128 55 39 3.0 5.0 0.00 0.00 0.00 34 1019.0
20260506130628 55 39 4.0 5.0 0.00 0.00 0.00 36 1019.0
20260506130128 55 39 4.0 6.0 0.00 0.00 0.00 36 1019.1
20260506125629 54 39 4.0 6.0 0.00 0.00 0.00 36 1019.0
20260506125126 54 39 4.0 5.0 0.00 0.00 0.00 36 1018.9
20260506124624 54 39 4.0 5.0 0.00 0.00 0.00 36 1018.9
20260506124124 53 39 4.0 6.0 0.00 0.00 0.00 37 1018.8
20260506123624 53 39 4.0 6.0 0.00 0.00 0.00 36 1018.7
20260506123122 53 39 4.0 6.0 0.00 0.00 0.00 35 1018.7
20260506122622 55 39 3.0 5.0 0.00 0.00 0.00 34 1018.7
20260506122120 56 39 4.0 5.0 0.00 0.00 0.00 33 1018.7
20260506121617 58 39 4.0 5.0 0.00 0.00 0.00 32 1018.7
20260506121116 58 39 3.0 5.0 0.00 0.00 0.00 32 1018.6
20260506120616 58 39 2.0 5.0 0.00 0.00 0.00 32 1018.7
20260506120348 59 39 3.0 9.0 0.00 0.00 0.00 31 1018.6
20260506115617 59 39 4.0 11.0 0.00 0.00 0.00 31 1018.6
20260506115110 58 39 3.0 11.0 0.00 0.00 0.00 33 1018.6
20260506114610 57 39 2.0 4.0 0.00 0.00 0.00 34 1018.5
20260506114108 57 39 2.0 11.0 0.00 0.00 0.00 33 1018.7
20260506113608 57 39 5.0 11.0 0.00 0.00 0.00 33 1018.5
20260506113107 57 39 8.0 11.0 0.00 0.00 0.00 33 1018.4
20260506112608 57 39 8.0 11.0 0.00 0.00 0.00 33 1018.4
20260506112106 57 39 9.0 12.0 0.00 0.00 0.00 33 1018.4
20260506111834 57 39 9.0 12.0 0.00 0.00 0.00 33 1018.3
20260506111102 57 39 10.0 12.0 0.00 0.00 0.00 33 1018.3
20260506110601 57 39 10.0 12.0 0.00 0.00 0.00 33 1018.2
20260506105602 57 39 9.0 12.0 0.00 0.00 0.00 33 1018.3
20260506105056 57 39 9.0 13.0 0.00 0.00 0.00 33 1018.2
20260506104827 58 39 10.0 13.0 0.00 0.00 0.00 33 1018.2
20260506104326 58 39 9.0 13.0 0.00 0.00 0.00 33 1018.2
20260506103555 58 39 7.0 11.0 0.00 0.00 0.00 33 1018.2
20260506103056 57 39 6.0 9.0 0.00 0.00 0.00 33 1018.3
20260506102556 58 39 6.0 9.0 0.00 0.00 0.00 33 1018.1
20260506102051 58 39 6.0 9.0 0.00 0.00 0.00 34 1018.2
20260506101551 58 39 6.0 10.0 0.00 0.00 0.00 34 1018.2
20260506101052 58 39 8.0 10.0 0.00 0.00 0.00 33 1018.1
20260506100552 58 39 7.0 10.0 0.00 0.00 0.00 33 1018.0
20260506100048 58 39 8.0 10.0 0.00 0.00 0.00 33 1017.9
20260506095548 58 39 7.0 11.0 0.00 0.00 0.00 33 1017.9
20260506095047 58 39 5.0 11.0 0.00 0.00 0.00 34 1017.9
20260506094547 58 39 3.0 6.0 0.00 0.00 0.00 33 1017.9
20260506094047 58 39 2.0 4.0 0.00 0.00 0.00 32 1018.0
20260506093549 58 39 0.0 2.0 0.00 0.00 0.00 32 1017.9
20260506093044 59 39 0.0 2.0 0.00 0.00 0.00 32 1018.0
20260506092815 59 39 1.0 4.0 0.00 0.00 0.00 32 1018.0
20260506092044 59 39 4.0 9.0 0.00 0.00 0.00 32 1018.0
20260506091543 59 39 6.0 10.0 0.00 0.00 0.00 32 1017.9
20260506091048 59 39 6.0 10.0 0.00 0.00 0.00 32 1017.8
20260506091044 59 39 7.0 10.0 0.00 0.00 0.00 32 1017.9
20260506090039 59 39 5.0 9.0 0.00 0.00 0.00 32 1017.8
20260506085540 59 39 5.0 8.0 0.00 0.00 0.00 32 1017.8
20260506085311 59 39 6.0 9.0 0.00 0.00 0.00 32 1017.8
20260506085146 60 39 6.0 9.0 0.00 0.00 0.00 31 1017.8
20260506084310 60 39 6.0 9.0 0.00 0.00 0.00 31 1017.8
20260506083540 60 39 5.0 8.0 0.00 0.00 0.00 31 1017.8
20260506083040 60 39 5.0 9.0 0.00 0.00 0.00 31 1017.6
20260506082538 60 39 5.0 9.0 0.00 0.00 0.00 31 1017.6
20260506082034 60 39 6.0 8.0 0.00 0.00 0.00 31 1017.6
20260506081533 60 39 7.0 10.0 0.00 0.00 0.00 31 1017.4
20260506081034 61 39 8.0 10.0 0.00 0.00 0.00 31 1017.5
20260506080534 61 39 7.0 10.0 0.00 0.00 0.00 31 1017.4
20260506073528 61 39 8.0 10.0 0.00 0.00 0.00 30 1017.6
20260506073257 61 39 7.0 10.0 0.00 0.00 0.00 30 1017.5
20260506072524 61 39 7.0 10.0 0.00 0.00 0.00 30 1017.6
20260506072023 62 39 8.0 10.0 0.00 0.00 0.00 30 1017.5
20260506071752 62 39 7.0 10.0 0.00 0.00 0.00 29 1017.6
20260506071025 62 39 9.0 12.0 0.00 0.00 0.00 29 1017.5
20260506071021 62 39 8.0 12.0 0.00 0.00 0.00 29 1017.6
20260506062512 62 39 8.0 11.0 0.00 0.00 0.00 29 1017.1
20260506062009 62 39 8.0 11.0 0.00 0.00 0.00 29 1017.0
20260506061741 62 39 8.0 10.0 0.00 0.00 0.00 29 1017.0
20260506061007 62 39 7.0 11.0 0.00 0.00 0.00 29 1016.9
20260506060507 62 39 8.0 11.0 0.00 0.00 0.00 28 1016.8
20260506050955 63 39 5.0 8.0 0.00 0.00 0.00 25 1016.6
20260506050726 63 39 5.0 8.0 0.00 0.00 0.00 25 1016.6
20260506044951 64 39 6.0 8.0 0.00 0.00 0.00 23 1016.4
20260506044451 64 39 6.0 9.0 0.00 0.00 0.00 22 1016.3
20260506043949 65 39 7.0 9.0 0.00 0.00 0.00 21 1016.3
20260506043449 65 39 7.0 10.0 0.00 0.00 0.00 20 1016.2
20260506043219 65 39 8.0 10.0 0.00 0.00 0.00 19 1016.1
20260506042448 64 39 8.0 10.0 0.00 0.00 0.00 19 1016.1
20260506041945 64 39 8.0 10.0 0.00 0.00 0.00 19 1016.1
20260506041445 64 39 6.0 10.0 0.00 0.00 0.00 18 1015.8
20260506040945 64 39 5.0 8.0 0.00 0.00 0.00 18 1015.8
20260506040716 65 39 5.0 6.0 0.00 0.00 0.00 18 1015.7
20260506035943 65 39 5.0 6.0 0.00 0.00 0.00 18 1015.6
20260506035444 65 39 4.0 6.0 0.00 0.00 0.00 17 1015.5
20260506034941 66 39 4.0 5.0 0.00 0.00 0.00 17 1015.5
20260506034441 66 39 3.0 5.0 0.00 0.00 0.00 17 1015.4
20260506034211 67 39 2.0 5.0 0.00 0.00 0.00 16 1015.4
20260506033439 68 39 2.0 3.0 0.00 0.00 0.00 16 1015.3
20260506032941 68 39 2.0 4.0 0.00 0.00 0.00 16 1015.2
20260506032937 68 39 2.0 4.0 0.00 0.00 0.00 16 1015.2
20260506031933 68 39 3.0 5.0 0.00 0.00 0.00 16 1015.0
20260506031432 68 39 4.0 6.0 0.00 0.00 0.00 16 1015.0
20260506030933 68 39 3.0 6.0 0.00 0.00 0.00 15 1014.9
20260506030432 68 39 3.0 5.0 0.00 0.00 0.00 15 1014.8
20260506025930 69 39 3.0 5.0 0.00 0.00 0.00 15 1014.7